| time (UTC) | temp C | wind direction | speed KPH | gust KPH | rain 1hr cm | rain 24hr cm | rain mn cm | humidity % | barometer mb |
| 20260507131711 | 7 | 219 | 0.0 | 3.2 | 0.69 | 1.75 | 1.27 | 95 | 1015.1 |
| 20260507124717 | 5 | 217 | 0.0 | 3.2 | 0.84 | 1.83 | 1.17 | 91 | 1015.4 |
| 20260507123200 | 6 | 217 | 0.0 | 6.4 | 0.91 | 1.70 | 1.04 | 87 | 1015.6 |
| 20260507120218 | 8 | 309 | 0.0 | 4.8 | 0.43 | 1.17 | 0.51 | 91 | 1015.0 |
| 20260507114655 | 10 | 218 | 4.8 | 11.3 | 0.33 | 1.30 | 0.33 | 89 | 1014.7 |
| 20260507111702 | 10 | 241 | 1.6 | 8.0 | 0.05 | 1.04 | 0.08 | 89 | 1014.5 |
| 20260507104715 | 10 | 254 | 4.8 | 12.9 | 0.00 | 1.19 | 0.03 | 87 | 1014.8 |
| 20260507101719 | 12 | 259 | 4.8 | 11.3 | 0.00 | 1.19 | 0.03 | 84 | 1014.5 |
| 20260507100207 | 13 | 234 | 4.8 | 16.1 | 0.00 | 1.19 | 0.03 | 79 | 1014.6 |
| 20260507093224 | 12 | 198 | 4.8 | 11.3 | 0.00 | 1.22 | 0.03 | 79 | 1014.5 |
| 20260507090226 | 12 | 246 | 4.8 | 9.7 | 0.03 | 1.22 | 0.03 | 81 | 1014.4 |
| 20260507084720 | 12 | 270 | 1.6 | 11.3 | 0.03 | 1.22 | 0.03 | 81 | 1014.5 |
| 20260507083208 | 12 | 307 | 3.2 | 11.3 | 0.03 | 1.22 | 0.03 | 83 | 1014.5 |
| 20260507080211 | 10 | 259 | 1.6 | 11.3 | 0.00 | 1.19 | 0.00 | 85 | 1014.4 |
| 20260507073210 | 10 | 205 | 0.0 | 1.6 | 0.00 | 1.27 | 0.00 | 93 | 1014.2 |
| 20260507070202 | 8 | 205 | 0.0 | 0.0 | 0.00 | 1.27 | 0.00 | 96 | 1014.0 |
| 20260507063216 | 7 | 205 | 0.0 | 0.0 | 0.00 | 1.57 | 0.00 | 96 | 1013.9 |
| 20260507061700 | 6 | 205 | 0.0 | 0.0 | 0.00 | 1.57 | 0.00 | 96 | 1013.9 |
| 20260507060155 | 5 | 205 | 0.0 | 0.0 | 0.00 | 1.57 | 0.00 | 96 | 1014.0 |
| 20260507053213 | 2 | 205 | 0.0 | 0.0 | 0.00 | 1.83 | 0.00 | 96 | 1014.0 |
| 20260507050200 | 0 | 205 | 0.0 | 0.0 | 0.00 | 1.83 | 0.00 | 95 | 1013.6 |
| 20260507043222 | 0 | 205 | 0.0 | 0.0 | 0.00 | 1.85 | 0.00 | 95 | 1013.4 |
| 20260507041710 | 0 | 205 | 0.0 | 0.0 | 0.00 | 1.85 | 0.00 | 94 | 1013.3 |
| 20260507034716 | 0 | 205 | 0.0 | 0.0 | 0.00 | 1.85 | 0.00 | 94 | 1013.1 |
| 20260507033148 | 0 | 205 | 0.0 | 0.0 | 0.00 | 1.85 | 0.00 | 95 | 1013.1 |
| 20260507030214 | 0 | 205 | 0.0 | 0.0 | 0.00 | 1.85 | 0.00 | 94 | 1013.1 |
| 20260507023202 | 0 | 205 | 0.0 | 0.0 | 0.00 | 1.85 | 0.00 | 94 | 1013.0 |
| 20260507020204 | 1 | 205 | 0.0 | 0.0 | 0.00 | 1.85 | 0.00 | 94 | 1012.8 |
| 20260507014700 | 1 | 205 | 0.0 | 0.0 | 0.00 | 1.85 | 0.00 | 94 | 1012.8 |
| 20260507011710 | 2 | 205 | 0.0 | 0.0 | 0.00 | 1.85 | 0.00 | 93 | 1012.8 |
| 20260507010150 | 2 | 205 | 0.0 | 0.0 | 0.00 | 1.85 | 0.00 | 93 | 1012.7 |
| 20260507003202 | 4 | 205 | 0.0 | 0.0 | 0.00 | 1.85 | 0.00 | 94 | 1012.4 |
| 20260507000220 | 5 | 205 | 0.0 | 0.0 | 0.00 | 1.85 | 0.00 | 94 | 1012.6 |
| 20260506234715 | 6 | 205 | 0.0 | 0.0 | 0.00 | 1.85 | 0.00 | 94 | 1012.4 |
| 20260506231704 | 6 | 205 | 0.0 | 0.0 | 0.00 | 1.85 | 0.00 | 95 | 1012.4 |
| 20260506230148 | 5 | 205 | 0.0 | 0.0 | 0.00 | 1.85 | 0.00 | 95 | 1012.5 |
| 20260506223158 | 5 | 205 | 0.0 | 0.0 | 0.00 | 1.85 | 0.00 | 93 | 1012.4 |
| 20260506220302 | 7 | 205 | 0.0 | 0.0 | 0.00 | 1.85 | 0.00 | 93 | 1012.4 |
| 20260506214704 | 7 | 205 | 0.0 | 0.0 | 0.00 | 1.85 | 1.85 | 93 | 1012.4 |
| 20260506211714 | 8 | 205 | 0.0 | 0.0 | 0.00 | 1.85 | 1.85 | 94 | 1012.4 |
| 20260506210209 | 8 | 205 | 0.0 | 0.0 | 0.00 | 1.85 | 1.85 | 95 | 1012.3 |
| 20260506204701 | 8 | 205 | 0.0 | 0.0 | 0.00 | 1.85 | 1.85 | 95 | 1012.4 |
| 20260506203148 | 8 | 205 | 0.0 | 3.2 | 0.00 | 1.85 | 1.85 | 94 | 1012.3 |
| 20260506200215 | 8 | 205 | 0.0 | 0.0 | 0.03 | 1.85 | 1.85 | 93 | 1011.9 |
| 20260506193214 | 9 | 205 | 0.0 | 3.2 | 0.05 | 1.85 | 1.85 | 93 | 1011.5 |
| 20260506190205 | 9 | 282 | 1.6 | 6.4 | 0.03 | 1.83 | 1.83 | 94 | 1011.1 |
| 20260506184700 | 9 | 114 | 0.0 | 3.2 | 0.00 | 1.83 | 1.83 | 93 | 1011.1 |
| 20260506181712 | 9 | 114 | 0.0 | 3.2 | 0.00 | 1.83 | 1.83 | 93 | 1010.9 |
| 20260506180149 | 10 | 114 | 0.0 | 3.2 | 0.00 | 1.83 | 1.83 | 92 | 1011.0 |
| 20260506173204 | 10 | 220 | 0.0 | 0.0 | 0.00 | 1.83 | 1.83 | 92 | 1010.7 |
| 20260506171656 | 10 | 220 | 0.0 | 3.2 | 0.00 | 1.83 | 1.83 | 91 | 1010.6 |
| 20260506170147 | 10 | 214 | 0.0 | 4.8 | 0.00 | 1.83 | 1.83 | 91 | 1010.5 |
| 20260506163204 | 10 | 232 | 0.0 | 8.0 | 0.00 | 1.85 | 1.83 | 91 | 1010.2 |
| 20260506160210 | 10 | 267 | 1.6 | 4.8 | 0.00 | 1.85 | 1.83 | 92 | 1010.5 |
| 20260506153210 | 10 | 33 | 0.0 | 3.2 | 0.00 | 1.88 | 1.83 | 92 | 1010.4 |
| 20260506151710 | 10 | 33 | 0.0 | 6.4 | 0.00 | 1.88 | 1.83 | 90 | 1010.4 |
| 20260506144718 | 10 | 27 | 3.2 | 8.0 | 0.23 | 1.91 | 1.83 | 91 | 1010.6 |
| 20260506141722 | 9 | 57 | 0.0 | 4.8 | 0.23 | 1.91 | 1.83 | 93 | 1010.7 |
| 20260506134719 | 10 | 335 | 0.0 | 3.2 | 0.28 | 1.70 | 1.60 | 93 | 1010.8 |